Weather History for Easton, MD

Change the Weather History Date:

Sunday, March 3, 2013

  Actual Average Record
Temperature  
Mean Temperature 34 °F -  
Max Temperature 41 °F 55 °F 72 °F (1972)
Min Temperature 28 °F 34 °F 14 °F (2009)
Degree Days  
Heating Degree Days 30    
Moisture  
Dew Point 23 °F    
Average Humidity 69    
Maximum Humidity 83    
Minimum Humidity 49    
Precipitation  
Precipitation 0.00 in - - ()
Sea Level Pressure  
Sea Level Pressure 29.86 in    
Wind  
Wind Speed 11 mph (NNW)    
Max Wind Speed 20 mph    
Max Gust Speed 29 mph    
Visibility 10 miles    
Events      
Averages and records for this station are not official NWS values.
T = Trace of Precipitation, MM = Missing Value Source: NWS Daily Summary

Daily Weather History Graph

Daily Weather History Graph

Search for Another Location

Airport:

Trip Planner

Search our weather history database for the weather conditions in past years. The results will help you decide how hot, cold, wet, or windy it might be!

Date:

Astronomy

Mar. 03, 2013 Rise Set
Actual Time 6:33 AM EST 5:59 PM EST
Civil Twilight 6:06 AM EST 6:26 PM EST
Nautical Twilight 5:35 AM EST 6:56 PM EST
Astronomical Twilight 5:05 AM EST 7:27 PM EST
Moon No Moon Rise 9:50 AM EST (3/3)
Length of Visible Light 12h 19m
Length of Day
11h 26m
Waning Gibbous, 64% of the Moon is Illuminated
Mar 3
Waning Gibbous
Mar 4
Last Quarter
Mar 11
New
Mar 19
First Quarter
Mar 27
Full

Hourly Weather History & Observations

Time (EST) Temp. Windchill Dew Point Humidity Pressure Visibility Wind Dir Wind Speed Gust Speed Precip Events Conditions
12:19 AM 31.8 °F 23.3 °F 23.9 °F 73% 29.86 in 10.0 mi NW 10.4 mph - N/A   Clear
12:39 AM 31.5 °F 23.5 °F 23.9 °F 74% 29.86 in 10.0 mi NW 9.2 mph - N/A   Clear
12:59 AM 31.1 °F 23.7 °F 24.3 °F 76% 29.86 in 10.0 mi NW 8.1 mph - N/A   Clear
1:19 AM 31.3 °F 22.7 °F 24.4 °F 76% 29.86 in 10.0 mi NNW 10.4 mph - N/A   Clear
1:39 AM 30.2 °F 23.4 °F 24.6 °F 80% 29.86 in 10.0 mi NNW 6.9 mph - N/A   Clear
1:59 AM 30.2 °F 22.6 °F 24.8 °F 80% 29.86 in 10.0 mi NNW 8.1 mph - N/A   Clear
2:19 AM 30.0 °F 22.4 °F 24.8 °F 81% 29.85 in 10.0 mi NNW 8.1 mph - N/A   Clear
2:39 AM 29.7 °F 22.0 °F 24.8 °F 82% 29.85 in 10.0 mi NNW 8.1 mph - N/A   Clear
2:59 AM 30.2 °F 20.8 °F 24.8 °F 80% 29.85 in 10.0 mi NW 11.5 mph - N/A   Clear
3:19 AM 30.6 °F 23.8 °F 24.6 °F 79% 29.85 in 10.0 mi NW 6.9 mph - N/A   Clear
3:39 AM 29.8 °F 22.2 °F 24.3 °F 80% 29.84 in 10.0 mi NW 8.1 mph - N/A   Clear
3:59 AM 30.2 °F 22.6 °F 24.3 °F 79% 29.85 in 10.0 mi NNW 8.1 mph - N/A   Clear
4:19 AM 29.7 °F 22.8 °F 23.9 °F 79% 29.85 in 10.0 mi NW 6.9 mph - N/A   Clear
4:39 AM 29.5 °F 21.8 °F 24.3 °F 81% 29.85 in 10.0 mi NNW 8.1 mph - N/A   Clear
4:59 AM 29.7 °F 23.7 °F 23.9 °F 79% 29.85 in 10.0 mi NW 5.8 mph - N/A   Scattered Clouds
5:19 AM 28.6 °F 21.5 °F 23.9 °F 83% 29.85 in 10.0 mi NW 6.9 mph - N/A   Scattered Clouds
5:40 AM 30.0 °F 21.1 °F 24.1 °F 79% 29.85 in 10.0 mi NNW 10.4 mph - N/A   Clear
5:48 AM 30.2 °F 21.9 °F 24.8 °F 80% 29.85 in 10.0 mi NW 9.2 mph - N/A   Mostly Cloudy
6:00 AM 29.7 °F 20.7 °F 23.9 °F 79% 29.86 in 10.0 mi NNW 10.4 mph - N/A   Clear
6:20 AM 30.7 °F 20.4 °F 21.7 °F 69% 29.86 in 10.0 mi North 13.8 mph 18.4 mph N/A   Clear
6:40 AM 30.9 °F 24.3 °F 21.7 °F 69% 29.86 in 10.0 mi North 6.9 mph - N/A   Scattered Clouds
6:41 AM 30.9 °F 24.3 °F 21.9 °F 69% 29.86 in 10.0 mi North 6.9 mph - N/A   Scattered Clouds
6:50 AM 30.2 °F 21.9 °F 21.2 °F 69% 29.87 in 10.0 mi NNW 9.2 mph 17.3 mph N/A   Mostly Cloudy
7:48 AM 33.8 °F 25.8 °F 21.2 °F 60% 29.88 in 10.0 mi NNW 10.4 mph 20.7 mph N/A   Mostly Cloudy
8:50 AM 33.8 °F 23.2 °F 21.2 °F 60% 29.87 in 10.0 mi NW 17.3 mph 25.3 mph N/A   Mostly Cloudy
9:45 AM 35.6 °F 25.9 °F 21.2 °F 56% 29.87 in 10.0 mi NNW 16.1 mph 25.3 mph N/A   Overcast
10:46 AM 35.6 °F 27.1 °F 23.0 °F 60% 29.87 in 10.0 mi NW 12.7 mph 20.7 mph N/A   Overcast
11:57 AM 35.6 °F 27.1 °F 24.8 °F 65% 29.87 in 10.0 mi NW 12.7 mph 20.7 mph N/A   Overcast
12:54 PM 35.6 °F 25.2 °F 23.0 °F 60% 29.85 in 10.0 mi NW 18.4 mph 28.8 mph N/A   Overcast
1:45 PM 37.4 °F 28.5 °F 23.0 °F 56% 29.82 in 10.0 mi NNW 15.0 mph 25.3 mph N/A   Overcast
2:51 PM 37.4 °F 28.9 °F 21.2 °F 52% 29.82 in 10.0 mi NNW 13.8 mph 21.9 mph N/A   Mostly Cloudy
3:50 PM 37.4 °F 28.5 °F 23.0 °F 56% 29.82 in 10.0 mi NW 15.0 mph 20.7 mph N/A   Mostly Cloudy
4:50 PM 41.0 °F 33.9 °F 23.0 °F 49% 29.82 in 10.0 mi NNW 12.7 mph 23.0 mph N/A   Mostly Cloudy
5:50 PM 37.4 °F 28.2 °F 23.0 °F 56% 29.85 in 10.0 mi NNW 16.1 mph 23.0 mph N/A   Overcast
6:51 PM 35.6 °F 28.0 °F 23.0 °F 60% 29.86 in 10.0 mi NNW 10.4 mph 17.3 mph N/A   Overcast
7:50 PM 35.6 °F 26.6 °F 23.0 °F 60% 29.88 in 10.0 mi NNW 13.8 mph 19.6 mph N/A   Overcast
8:50 PM 35.6 °F 26.2 °F 21.2 °F 56% 29.90 in 10.0 mi NW 15.0 mph 24.2 mph N/A   Mostly Cloudy
10:01 PM 34.2 °F 23.3 °F 21.7 °F 60% 29.91 in 10.0 mi NNW 18.4 mph 25.3 mph N/A   Overcast
10:21 PM 34.0 °F 25.5 °F 22.1 °F 62% 29.91 in 10.0 mi NW 11.5 mph 25.3 mph N/A   Overcast
10:41 PM 33.8 °F 22.5 °F 21.9 °F 62% 29.91 in 10.0 mi NNW 19.6 mph 24.2 mph N/A   Overcast
11:02 PM 33.1 °F 21.9 °F 22.1 °F 64% 29.91 in 10.0 mi NNW 18.4 mph - N/A   Overcast
11:22 PM 33.1 °F 23.4 °F 22.1 °F 64% 29.92 in 10.0 mi NW 13.8 mph 21.9 mph N/A   Overcast
11:42 PM 33.1 °F 22.2 °F 22.1 °F 64% 29.92 in 10.0 mi NW 17.3 mph 20.7 mph N/A   Overcast